Home > Weather > Corpus Christi > Past weeks

Flag for USA Past Weather in Corpus Christi, Texas, USA — Yesterday and Last 2 Weeks

Now
93 °F

Scattered clouds.


Feels Like: 102 °F
Forecast: 80 / 93 °F
Wind: 17 mph from Southeast

Location: Corpus Christi International Airport

Current Time: Jul 24, 2016 at 5:28:13 PM

Latest Report: Jul 24, 2016 at 4:51 PM


Visibility: 10 mi

Pressure: 29.86 "Hg

Humidity: 52%

Dew Point: 73 °F

Location of Corpus ChristiLocation

Past Weather in Corpus Christi — Graph

°F

Corpus Christi Temperature Yesterday

Maximum temperature yesterday: 95 °F (at 12:51 PM)
Minimum temperature yesterday: 78 °F (at 1:51 AM)
Average temperature yesterday: 86 °F

High & Low Weather Summary for the Past Weeks

 TemperatureHumidityPressure
High95 °F (Jul 15, 2:51 PM)97% (Jul 17, 5:51 AM)30.15 "Hg (Jul 17, 5:51 AM)
Low76 °F (Jul 17, 3:51 AM)42% (Jul 20, 12:51 PM)29.86 "Hg (Jul 10, 8:51 PM)
Average85 °F75%29.99 "Hg
* Reported Jul 9 3:51 PM — Jul 24 3:51 PM, Corpus Christi, Weather by CustomWeather, © 2016

Note: Actual official high and low records may vary slightly from our data, if they occured in-between our weather recording intervals... More about our weather records

Advertising

Corpus Christi Weather History for the Previous 24 Hours

Scroll right to see more
 ConditionsComfort  
Time TempWeatherWind HumidityBarometerVisibility
3:51 PM
Sun, Jul 24
93 °FScattered clouds.16 mph52%29.88 "Hg10 mi
2:51 PM93 °FBroken clouds.14 mph54%29.90 "Hg10 mi
1:51 PM93 °FBroken clouds.15 mph58%29.91 "Hg10 mi
12:51 PM93 °FPartly sunny.15 mph56%29.93 "Hg10 mi
11:51 AM92 °FBroken clouds.15 mph62%29.93 "Hg10 mi
10:51 AM90 °FBroken clouds.12 mph63%29.93 "Hg10 mi
9:51 AM80 °FScattered clouds.14 mph87%29.93 "Hg10 mi
8:51 AM81 °FScattered clouds.13 mph88%29.93 "Hg10 mi
7:51 AM82 °FScattered clouds.5 mph88%29.92 "Hg10 mi
6:51 AM78 °FPassing clouds.3 mph90%29.91 "Hg10 mi
5:51 AM79 °FPassing clouds.No wind88%29.90 "Hg10 mi
4:51 AM79 °FPassing clouds.No wind90%29.90 "Hg10 mi
3:51 AM80 °FPassing clouds.7 mph87%29.89 "Hg10 mi
2:51 AM82 °FPassing clouds.7 mph85%29.91 "Hg10 mi
1:51 AM82 °FPassing clouds.9 mph88%29.92 "Hg10 mi
12:51 AM83 °FPassing clouds.12 mph82%29.93 "Hg10 mi
11:51 PM
Sat, Jul 23
83 °FPassing clouds.9 mph82%29.93 "Hg10 mi
10:51 PM84 °FPassing clouds.12 mph80%29.90 "Hg10 mi
9:51 PM84 °FClear.13 mph80%29.89 "Hg10 mi
8:51 PM85 °FPassing clouds.12 mph80%29.87 "Hg10 mi
7:51 PM88 °FPassing clouds.16 mph65%29.86 "Hg10 mi
6:51 PM90 °FPassing clouds.13 mph59%29.86 "Hg10 mi
5:51 PM92 °FPassing clouds.16 mph54%29.87 "Hg10 mi
Weather by CustomWeather, © 2016

See weather overviewHow to use our weather pages